DECAYED
Showing default

PICO-02C023, 60564 (Decayed)

Orbit data source: Space-Track

PICO-02C023, 60564 was a payload satellite owned by Apogeo Space (IT) in LEO that was launched on Fri, 16 Aug 2024 UTC via an FALCON 9 launch vehicle from the Air Force Western Test Range (AFWTR). Payload-class satellites include a variety of spacecraft equipped with specific instruments for various scientific and technological missions. These include communications satellites like Starlink; space stations such as the ISS; scientific satellites like the Hubble; Earth observation satellites from companies like Planet Labs, Umbra, and HawkEye 360; GPS; miniature CubeSats for education and research; and military/defense satellites.

Not visible in the next 10 days
Identifier
60564, 2024-149DA
Orbit
Decayed
Country
Flag of ITIT
Related business
Manufacturer
Apogeo Space
Mission
Decayed Commercial Communications
Bus & Motor
CUBESAT 0.3U, Unknown motor
Mass
0.5 kg wet, 0.5 kg dry
Launch date (UTC)
2024-08-16 (2 years ago)
Launch vehicle
FALCON 9
Launch site
Air Force Western Test Range (AFWTR)
Object type
Payload
Rocket body
Debris
Shape & HBR
Box, 0.1 m
Radar Cross Section
0.008 m², Medium (>0.1 m² and < 1m²)

Expand to show TLE details & history
Last TLE update: 7 months ago

TLE from 7 months ago
0 PICO-02C023
1 60564U 24149DA  26044.42348664  .12092122  26305-5  30268-2 0  9995
2 60564  97.6578 142.1406 0012828 296.0281  63.9690 16.28841824 82818
Epoch: 2026-02-13T10:09Z
TLE epoch observation values (Epoch: 2026-02-13T10:09:49.245Z)
Latitude
-0.00008°
Longitude
-153.77568°
Altitude
195.19 km
Speed
7.791 km/s
True Right ascension
09h 28m 33s
True Declination
0° 00' 00"
Sunlit
Object was in full shadow at epoch
Visualization orbit readout
Latitude
Unknown
Longitude
Unknown
Altitude
Unknown
Speed
Unknown
Apparent Right ascension
Unknown
Apparent Declination
Unknown
Sunlit
N/A
Visualization observer readout
Local Sidereal Time
09:57:29
Azimuth
Unknown
Elevation
Unknown
Doppler factor
Unknown
Orbital elements
Apogee altitude
200.917 km
Perigee altitude
184.059 km
Semi-major axis
6,570.625 km
Eccentricity
0.00128
Inclination
97.6578°
RAAN
142.1406°
Arg. of periapsis
296.0281°
True anomaly
64.10118°
Mean anomaly
63.969°
Eccentric anomaly
64.03508°
Mean motion
4.07505 °/min
Orbital period
88.34 mins
BSTAR
0.0030268
Loading maneuver chart data...
Computing Atmospheric mass density...
Loading historical data...
Loading historical data...
Loading historical data...
Loading historical data...
Loading historical data...
Loading historical data...
Loading historical data...

Documentation

Showing up to 5 results
|